[[{"header":{"parameterUnit":"m.s-1","parameterCategory":1,"la1":30.2991,"la2":30.254,"lo1":-89.0895,"lo2":-89.0444,"dy":0.0017,"dx":0.0017,"nx":28,"ny":28,"refTime":"2025-05-01T09:00:00:Z","depth":0,"parameterNumber":2,"parameterNumberName":"U-component_of_WINDS"},"data":[0,0,0,0,0,0,0,0,0,0,0,0,0,0,0,0,0,0,0,0,0,0,0,0,0,0,0,0,0,0,0,0,0,0,0,0,0,0,0,0,0,0,0,0,0,0,0,0,0,0,0,0,0,0,0,0,0,0,-0.0888,-0.0888,0,-0.088,-0.0879,-0.0879,-0.0871,-0.0871,-0.0871,-0.087,-0.0863,-0.0863,-0.0863,0,0,0,0,0,0,0,0,0,0,0,0,0,-0.09,-0.09,-0.0888,-0.0888,-0.0888,-0.088,-0.0879,-0.0879,-0.0871,-0.0871,-0.087,-0.087,-0.0863,-0.0863,-0.0863,0,0,0,0,0,0,0,0,0,0,0,0,0,-0.0894,-0.09,-0.0888,-0.0883,-0.0882,-0.088,-0.0879,-0.0879,-0.0871,-0.0871,-0.087,-0.087,-0.0863,-0.0863,-0.0863,-0.0865,0,0,-0.0862,-0.0862,0,0,0,0,0,0,0,0,-0.0894,-0.0893,-0.0884,-0.0883,-0.0883,-0.0876,-0.0881,-0.0875,-0.0871,-0.0875,-0.087,-0.087,-0.0867,-0.0867,-0.0866,-0.0865,-0.0864,-0.0862,-0.0862,-0.0862,-0.0862,0,0,0,0,0,0,0,-0.0894,-0.0894,-0.0885,-0.0884,-0.0883,-0.0882,-0.088,-0.088,-0.0872,-0.0875,-0.0874,-0.0873,-0.0867,-0.0866,-0.0865,-0.0864,-0.0862,-0.0862,-0.0862,-0.0862,-0.0867,-0.0867,0,0,0,0,0,0,-0.0895,-0.0894,-0.0885,-0.0885,-0.0888,-0.0881,-0.088,-0.0878,-0.0872,-0.0871,-0.0873,-0.0873,-0.0866,-0.0866,-0.0865,-0.0868,-0.0862,-0.0862,-0.0862,-0.0866,-0.0867,-0.0867,0,0,0,0,0,0,-0.0896,-0.0895,-0.0886,-0.0889,-0.0888,-0.0881,-0.0879,-0.0878,-0.0877,-0.0871,-0.087,-0.0873,-0.0866,-0.0865,-0.0865,-0.0868,-0.0862,-0.0862,-0.0866,-0.0866,-0.0867,-0.0874,0,0,0,0,0,0,-0.0896,-0.0895,-0.0895,-0.0889,-0.0888,-0.0885,-0.088,-0.0878,-0.0877,-0.0876,-0.0871,-0.087,-0.0866,-0.0866,-0.0865,-0.0868,-0.0862,-0.0866,-0.0866,-0.0867,-0.0874,-0.0875,-0.0876,0,0,0,0,0,-0.0897,-0.0898,-0.0895,-0.0894,-0.0888,-0.0885,-0.0885,-0.0879,-0.0877,-0.0877,-0.0874,-0.087,-0.0868,-0.0866,-0.0865,-0.0868,-0.0866,-0.0866,-0.0867,-0.0873,-0.0875,-0.0876,0,0,0,0,0,0,-0.0904,-0.0897,-0.0894,-0.0893,-0.089,-0.0884,-0.0884,-0.0881,-0.0879,-0.0878,-0.0872,-0.0871,-0.0872,-0.087,-0.0868,-0.087,-0.0866,-0.0867,-0.0872,-0.0873,-0.0874,-0.0874,-0.0861,0,0,0,0,0,-0.0906,-0.0904,-0.0898,-0.0898,-0.0896,-0.0891,-0.0889,-0.0886,-0.0883,-0.0881,-0.0878,-0.0875,-0.0874,-0.0873,-0.0872,-0.0874,-0.0873,-0.0875,-0.0876,-0.0877,-0.0877,-0.0879,-0.088,-0.0868,-0.0868,-0.0868,0,0,-0.0909,-0.0905,-0.0904,-0.0899,-0.0896,-0.0895,-0.089,-0.0888,-0.0888,-0.0881,-0.0881,-0.0879,-0.0876,-0.0877,-0.0877,-0.0875,-0.0881,-0.0878,-0.0878,-0.0878,-0.088,-0.0881,-0.0882,-0.0869,-0.0869,-0.0869,0,0,-0.0915,-0.0911,-0.0911,-0.0908,-0.0904,-0.09,-0.0901,-0.0895,-0.0893,-0.0893,-0.0888,-0.0888,-0.0886,-0.0884,-0.0883,-0.0889,-0.0886,-0.0889,-0.0894,-0.0896,-0.0897,-0.0898,-0.0901,-0.0902,-0.089,-0.089,-0.089,0,-0.0919,-0.0917,-0.0911,-0.0911,-0.0909,-0.0903,-0.0904,-0.0902,-0.0897,-0.0897,-0.0894,-0.0892,-0.089,-0.0891,-0.0892,-0.0891,-0.0892,-0.0889,-0.0897,-0.0898,-0.0899,-0.0901,-0.0902,-0.089,-0.089,-0.089,-0.089,0,-0.0923,-0.0922,-0.0922,-0.0918,-0.0917,-0.0916,-0.0912,-0.0911,-0.0908,-0.0905,-0.0906,-0.0903,-0.0901,-0.0901,-0.0898,-0.0902,-0.0901,-0.0898,-0.0894,-0.09,-0.0903,-0.0904,-0.0891,-0.0891,-0.089,-0.089,0,0,-0.0932,-0.0926,-0.0926,-0.0924,-0.092,-0.0919,-0.092,-0.0918,-0.0917,-0.0915,-0.0916,-0.0915,-0.0912,-0.0911,-0.0908,-0.0909,-0.0916,-0.0906,-0.0906,-0.0908,-0.0921,-0.0923,-0.0924,-0.0913,-0.0914,-0.0914,-0.0921,0,-0.0937,-0.0936,-0.0932,-0.0933,-0.0932,-0.0927,-0.0927,-0.0925,-0.0923,-0.0923,-0.092,-0.092,-0.0916,-0.0915,-0.0917,-0.0914,-0.0918,-0.0914,-0.0915,-0.0915,-0.0915,-0.0925,-0.0928,-0.0935,-0.0922,-0.0922,-0.0922,0,-0.0942,-0.094,-0.0941,-0.0937,-0.0937,-0.0937,-0.0935,-0.0935,-0.0933,-0.0931,-0.093,-0.0927,-0.0928,-0.0925,-0.0926,-0.0924,-0.0924,-0.0923,-0.0923,-0.0923,-0.0919,-0.0926,-0.0937,-0.0938,-0.0924,-0.0923,-0.0923,0,-0.0949,-0.0946,-0.0947,-0.0946,-0.0941,-0.0942,-0.094,-0.0938,-0.0938,-0.0937,-0.0937,-0.0936,-0.0936,-0.0936,-0.0933,-0.093,-0.0935,-0.0931,-0.0935,-0.0935,-0.0936,-0.0936,-0.0947,-0.0936,-0.0936,-0.0936,-0.0936,0,-0.0954,-0.0955,-0.095,-0.095,-0.0951,-0.0947,-0.0949,-0.0947,-0.0945,-0.0946,-0.0942,-0.0942,-0.0938,-0.0939,-0.0937,-0.0939,-0.0939,-0.0938,-0.0938,-0.0939,-0.0939,-0.0939,-0.0938,-0.0936,-0.0936,-0.0936,-0.0936,0,-0.0962,-0.0958,-0.0959,-0.0955,-0.0954,-0.0955,-0.0953,-0.0953,-0.0951,-0.0952,-0.0952,-0.0949,-0.0949,-0.0947,-0.0947,-0.0945,-0.0949,-0.0948,-0.095,-0.0949,-0.0953,-0.0953,-0.0965,-0.0966,-0.0954,-0.0954,-0.0954,0,-0.0966,-0.0966,-0.0963,-0.0963,-0.0961,-0.0961,-0.0961,-0.0957,-0.0957,-0.0956,-0.0957,-0.0957,-0.0957,-0.0959,-0.0957,-0.0957,-0.0956,-0.096,-0.0956,-0.0957,-0.0956,-0.0956,-0.0957,-0.0961,-0.0961,-0.0961,-0.0961,0,-0.0973,-0.0971,-0.0971,-0.097,-0.0969,-0.0969,-0.0968,-0.0968,-0.0964,-0.0965,-0.0965,-0.0965,-0.0966,-0.0966,-0.0967,-0.0966,-0.0963,-0.0963,-0.0964,-0.0965,-0.0966,-0.0966,-0.0952,-0.0962,-0.0962,-0.0962,-0.0962,-0.0962,-0.0979,-0.0979,-0.0977,-0.0977,-0.0976,-0.0976,-0.0976,-0.0975,-0.0975,-0.0975,-0.0973,-0.0974,-0.0973,-0.0973,-0.0973,-0.0975,-0.0973,-0.0974,-0.0974,-0.0975,-0.0975,-0.0966,-0.0975,-0.0975,-0.0975,-0.0974,-0.0974,0,-0.0986,-0.0985,-0.0985,-0.0984,-0.0984,-0.0981,-0.098,-0.0981,-0.0982,-0.0981,-0.0982,-0.0983,-0.0984,-0.0982,-0.0983,-0.0985,-0.0984,-0.0985,-0.0985,-0.0985,-0.0977,-0.0976,-0.0986,-0.0986,-0.0986,-0.0986,-0.0986,-0.0986,-0.099,-0.0991,-0.099,-0.0991,-0.099,-0.0991,-0.0991,-0.099,-0.099,-0.0992,-0.0992,-0.0991,-0.0991,-0.0992,-0.0993,-0.0993,-0.0994,-0.0996,-0.0995,-0.0987,-0.0986,-0.0985,-0.0984,-0.0996,-0.0996,-0.1003,-0.1003,-0.1003]},{"header":{"parameterUnit":"m.s-1","parameterCategory":1,"la1":30.2991,"la2":30.254,"lo1":-89.0895,"lo2":-89.0444,"dy":0.0017,"dx":0.0017,"nx":28,"ny":28,"refTime":"2025-05-01T09:00:00:Z","depth":0,"parameterNumber":3,"parameterNumberName":"V-component_of_WINDS"},"data":[0,0,0,0,0,0,0,0,0,0,0,0,0,0,0,0,0,0,0,0,0,0,0,0,0,0,0,0,0,0,0,0,0,0,0,0,0,0,0,0,0,0,0,0,0,0,0,0,0,0,0,0,0,0,0,0,0,0,5.9235,5.9235,0,5.926,5.926,5.9261,5.9243,5.9242,5.9241,5.9241,5.9262,5.9264,5.9265,0,0,0,0,0,0,0,0,0,0,0,0,0,5.9168,5.917,5.9235,5.9235,5.9235,5.926,5.926,5.9261,5.9243,5.9242,5.9241,5.924,5.9262,5.9263,5.9265,0,0,0,0,0,0,0,0,0,0,0,0,0,5.9196,5.917,5.9235,5.923,5.923,5.926,5.926,5.9261,5.9243,5.9242,5.9241,5.924,5.9261,5.9263,5.9265,5.9301,0,0,5.9271,5.9272,0,0,0,0,0,0,0,0,5.9194,5.9198,5.923,5.923,5.923,5.9247,5.9245,5.9274,5.9244,5.9238,5.9241,5.9239,5.9258,5.926,5.9267,5.9302,5.9303,5.9271,5.9273,5.9273,5.9274,0,0,0,0,0,0,0,5.9192,5.9197,5.9245,5.9231,5.9231,5.9225,5.9228,5.925,5.9254,5.9238,5.9237,5.9241,5.9258,5.9265,5.9268,5.9303,5.9271,5.9273,5.9274,5.9275,5.9368,5.937,0,0,0,0,0,0,5.9191,5.9195,5.9244,5.9245,5.9209,5.9227,5.923,5.9243,5.9254,5.9254,5.9242,5.924,5.9263,5.9265,5.9268,5.9311,5.9273,5.9275,5.9276,5.9367,5.9369,5.937,0,0,0,0,0,0,5.919,5.9196,5.9243,5.922,5.9226,5.923,5.9244,5.9244,5.9252,5.9256,5.9256,5.9249,5.9262,5.9266,5.9293,5.9311,5.9276,5.9278,5.9366,5.9368,5.9369,5.9396,0,0,0,0,0,0,5.9188,5.9195,5.9209,5.9221,5.9227,5.9268,5.9245,5.9245,5.9256,5.9253,5.9263,5.9264,5.9261,5.929,5.9295,5.9313,5.9279,5.9364,5.9366,5.9369,5.9394,5.9399,5.9403,0,0,0,0,0,5.9186,5.9215,5.921,5.9216,5.9245,5.9269,5.9273,5.927,5.9257,5.9271,5.9274,5.9263,5.9309,5.9293,5.9299,5.9318,5.9363,5.9366,5.9369,5.9392,5.9398,5.9403,0,0,0,0,0,0,5.9203,5.9216,5.9211,5.9245,5.9256,5.9266,5.9283,5.9277,5.9291,5.9288,5.9284,5.9286,5.9315,5.9319,5.9302,5.9353,5.9334,5.9338,5.9349,5.9355,5.936,5.9358,5.9281,0,0,0,0,0,5.9212,5.9232,5.9241,5.927,5.9276,5.9279,5.9289,5.9287,5.9298,5.9302,5.9307,5.9317,5.9334,5.9345,5.936,5.9395,5.9396,5.941,5.9415,5.9419,5.9422,5.9441,5.9448,5.938,5.938,5.938,0,0,5.9228,5.9237,5.925,5.9274,5.9282,5.9302,5.9283,5.9304,5.9319,5.9305,5.9332,5.9336,5.9347,5.9379,5.9392,5.9383,5.9442,5.9423,5.9426,5.9427,5.9445,5.9452,5.9457,5.9382,5.9381,5.9381,0,0,5.9268,5.9277,5.9303,5.9313,5.9327,5.9329,5.9335,5.9347,5.9349,5.9377,5.9367,5.9384,5.9412,5.9421,5.9429,5.9475,5.9466,5.948,5.9504,5.9523,5.9528,5.9533,5.955,5.9555,5.9483,5.9483,5.9483,0,5.9286,5.9317,5.9316,5.934,5.935,5.9341,5.9366,5.9375,5.9393,5.94,5.939,5.9427,5.9433,5.9467,5.9478,5.9485,5.9492,5.9478,5.9528,5.9533,5.9537,5.9553,5.9559,5.9485,5.9485,5.9485,5.9485,0,5.9338,5.936,5.9379,5.9399,5.9412,5.9436,5.9438,5.9451,5.9448,5.9451,5.948,5.9488,5.9505,5.9513,5.9509,5.9546,5.954,5.9529,5.9509,5.9545,5.956,5.9566,5.9487,5.9487,5.9486,5.9486,0,0,5.9388,5.941,5.9417,5.9426,5.9442,5.9458,5.9482,5.9501,5.9512,5.9525,5.9545,5.957,5.9561,5.957,5.9567,5.9584,5.962,5.957,5.9571,5.9579,5.9661,5.967,5.9677,5.9614,5.9615,5.9616,5.966,0,5.9429,5.9473,5.9474,5.9513,5.9534,5.9526,5.9547,5.9558,5.9562,5.9579,5.9582,5.9601,5.9587,5.9592,5.9608,5.9612,5.9636,5.9609,5.9632,5.9632,5.9629,5.9684,5.9693,5.9734,5.9666,5.9667,5.9668,0,5.9483,5.95,5.9542,5.9557,5.9565,5.9584,5.9602,5.9619,5.9632,5.9633,5.9645,5.964,5.9664,5.9644,5.9677,5.9658,5.9668,5.9671,5.9673,5.9674,5.9652,5.9687,5.9747,5.9753,5.9677,5.9676,5.9675,0,5.9515,5.9549,5.9579,5.9587,5.9605,5.9618,5.9626,5.9638,5.965,5.9665,5.9673,5.969,5.97,5.9713,5.9713,5.9698,5.9746,5.9726,5.9747,5.9747,5.9757,5.9756,5.9819,5.9763,5.9763,5.9763,5.9763,0,5.9561,5.9587,5.9594,5.9612,5.9641,5.9642,5.967,5.9677,5.9688,5.9707,5.97,5.9718,5.9717,5.9734,5.9734,5.9761,5.9765,5.9767,5.9767,5.9768,5.9767,5.9773,5.977,5.9765,5.9764,5.9764,5.9764,0,5.9601,5.9607,5.964,5.9655,5.9659,5.968,5.9692,5.9709,5.9714,5.9738,5.9743,5.9749,5.9769,5.9771,5.9794,5.9794,5.9827,5.9823,5.9823,5.9822,5.9844,5.9842,5.9912,5.9922,5.986,5.986,5.9861,0,5.963,5.965,5.9669,5.9682,5.9691,5.9712,5.9725,5.9727,5.974,5.9758,5.9772,5.9793,5.9809,5.9842,5.9847,5.9865,5.9862,5.9885,5.9864,5.9865,5.9862,5.9861,5.9863,5.9889,5.989,5.9891,5.9891,0,5.968,5.9683,5.9702,5.9724,5.974,5.9756,5.9771,5.9782,5.9786,5.9801,5.9823,5.9836,5.9861,5.9881,5.9899,5.9905,5.9899,5.9898,5.9904,5.9905,5.9904,5.9905,5.9834,5.9896,5.9895,5.9895,5.9895,5.9895,5.9716,5.9734,5.9751,5.9773,5.9785,5.98,5.9818,5.9825,5.9844,5.9866,5.9865,5.989,5.9903,5.9926,5.9934,5.9953,5.9945,5.9953,5.9955,5.9957,5.996,5.9902,5.9956,5.9956,5.9956,5.9955,5.9955,0,5.9766,5.9777,5.9798,5.9821,5.9838,5.9833,5.985,5.9865,5.9887,5.9901,5.9918,5.9943,5.9963,5.9971,5.999,6.0004,6.0001,6.0008,6.0007,6.0009,5.9966,5.9959,6.001,6.001,6.001,6.001,6.001,6.001,5.9794,5.9825,5.983,5.9867,5.9877,5.9903,5.9913,5.9926,5.9938,5.9967,5.9985,5.9991,6.0002,6.0022,6.004,6.0042,6.0049,6.0058,6.0058,6.0018,6.0012,6.0007,6.0,6.006,6.006,6.01,6.0101,6.0101]}]]